Location: Newark
(53.7833°N, 9.4833°E)
Time: 08:41:27
(UTC+00:00)

Envisat - Pass Details

Date: 18 December 2019
Orbit: 764 x 766 km, 98.1° (Epoch: 20 January)

Event Time Altitude Azimuth Distance (km) Brightness Sun altitude
Rises 17:40:39 0° 183° (S) 3,223 6.4 -21.9°
Reaches altitude 10° 17:43:03 10° 190° (S) 2,301 5.7 -22.2°
Maximum altitude 17:47:53 44° 262° (W) 1,054 4.1 -22.9°
Drops below altitude 10° 17:52:46 10° 335° (NNW) 2,317 5.7 -23.6°
Sets 17:55:12 0° 342° (NNW) 3,248 6.4 -24.0°
